Location: Eurasberg
(48.3353°N, 11.0839°E)
Time: 02:25:53
(UTC+00:00)

Daily predictions for brighter satellites

Satellite Brightness Start Highest point End
(mag) Time Altitude Azimuth Time Altitude Azimuth Time Altitude Azimuth
ATLAS 2AS CENTAUR R/B 3.7 03:16:43 38° NNE 03:17:06 38° NNE 03:23:19 10° E
Lacrosse 5 rocket 4.1 03:47:59 12° NE 03:47:59 12° NE 03:48:18 10° NE
BREEZE-M DEB (TANK) 4.1 03:54:08 61° WSW 03:54:51 63° SW 03:59:29 10° SE
ATLAS CENTAUR R/B 4.0 04:04:56 11° ESE 04:04:56 11° ESE 04:05:00 10° ESE
Cosmos 44 3.8 04:08:32 57° NNE 04:09:08 62° NE 04:14:29 10° SE
Cosmos 2082 Rocket 2.9 04:12:12 30° N 04:14:47 52° NE 04:20:20 10° SE
Meteor 2-10 Rocket 4.1 04:12:36 10° S 04:17:35 56° E 04:22:48 10° NNE
CZ-4C R/B 4.1 04:15:27 19° NNW 04:17:42 23° NNE 04:23:22 10° ENE
Cosmos 1833 Rocket 4.5 04:22:03 18° SSW 04:22:03 18° SSW 04:23:28 10° S
Cosmos 2278 Rocket 2.6 04:14:32 15° S 04:19:08 61° ESE 04:24:43 10° NNE
Timation 1 Rocket 4.2 04:19:01 64° NW 04:19:58 80° WSW 04:25:57 10° SSE
BREEZE-M DEB (TANK) 4.5 04:23:13 45° W 04:26:19 86° N 05:01:02 10° E
COSMO-SKYMED 1 2.9 04:22:57 10° SSE 04:26:59 58° ENE 04:28:08 41° NNE
Cosmos 1943 Rocket 2.1 04:25:36 27° SSW 04:28:43 79° ESE 04:34:14 10° NNE
USA 307 3.0 04:32:58 62° ENE 04:32:58 62° ENE 04:36:32 10° ESE
Cosmos 1763 Rocket 4.5 04:30:51 16° N 04:34:34 43° ENE 04:39:24 10° SE
Cosmos 1140 Rocket 3.9 04:30:41 10° S 04:35:41 60° ESE 04:40:46 10° NNE
Cosmos 1269 Rocket 4.4 04:30:33 10° S 04:35:45 63° ESE 04:41:00 10° NNE
Gbstr 26 Del rocket 4.3 04:33:15 34° SW 04:36:49 77° SSE 04:43:23 10° ENE
Cosmos 540 Rocket 4.4 04:40:31 13° N 04:44:49 45° ENE 04:49:41 10° SE
Timation 2 Rocket 4.0 04:44:53 10° SSW 04:51:29 87° WNW 04:57:51 10° NNE
Cosmos 1743 Rocket 3.5 04:49:02 10° S 04:53:27 86° E 04:57:53 10° N
Cosmos 2181 Rocket 4.2 04:49:20 10° NNW 04:55:23 46° W 05:01:27 10° SSW
Okean 1-7 4.0 04:52:29 10° N 04:56:30 46° ENE 05:00:31 10° SSE
CZ-4 R/B 3.7 04:53:17 10° NNE 04:58:05 76° WNW 05:02:58 10° SSW
Cosmos 2184 Rocket 3.9 04:54:20 10° SSW 05:00:30 68° WNW 05:06:40 10° N
GEOS 3 Rocket 3.7 04:55:36 10° SE 05:00:50 81° NE 05:04:15 23° NW
Lacrosse 4 Rocket 1.8 04:58:15 10° SSW 05:02:07 57° ESE 05:05:58 10° NE
NOSS 8 (E) 4.0 05:05:42 70° WSW 05:05:51 72° SW 05:09:15 10° SSE
Gblst 52 Del rocket 4.2 05:04:20 34° W 05:06:38 64° SSW 05:12:08 10° SE
NOAA 12 4.1 05:03:03 10° N 05:08:09 54° WNW 05:13:14 10° SW
ATLAS 2AS CENTAUR R/B 2.6 05:04:09 24° NW 05:08:28 70° SW 05:15:11 10° SSE
Cosmos 1484 Rocket 3.0 05:05:30 10° NNE 05:08:53 58° ESE 05:12:15 10° S
BREEZE-M DEB (TANK) 4.3 05:08:21 29° WSW 05:10:06 41° SSW 05:20:50 10° SE
SJ 16-02 3.6 05:08:31 10° SSE 05:12:04 26° E 05:15:38 10° NE
Cosmos 2228 Rocket 3.6 05:08:08 10° N 05:12:29 59° ENE 05:16:47 10° SSE
Cosmos 1805 Rocket 4.0 05:12:33 10° SW 05:16:40 37° WNW 05:20:48 10° N
RUBIN 8/PSLV 4.4 05:15:18 10° N 05:19:29 68° WNW 05:23:39 10° SSW
Cosmos 407 Rocket 3.7 05:16:09 10° SSW 05:21:16 75° ESE 05:26:28 10° NNE
Cosmos 2369 Rocket 4.4 05:16:53 10° SSE 05:21:40 29° ESE 05:26:29 10° NE
Cosmos 921 Rocket 3.7 05:21:33 30° WNW 05:22:08 31° WNW 05:25:55 10° N
BREEZE-M DEB (TANK) 2.1 05:22:01 57° W 05:22:24 83° SSW 05:24:48 10° ESE
Cosmos 2074 Rocket 4.2 05:16:43 10° SSW 05:22:45 47° WNW 05:28:48 10° N
Lacrosse 5 rocket 2.6 05:21:30 19° NNW 05:23:07 26° NNE 05:26:19 10° ENE
SMAP 4.1 05:19:01 10° NNE 05:23:34 50° E 05:28:05 10° S
IRS-1D 3.9 05:18:43 10° N 05:23:42 42° WNW 05:28:40 10° SW
Cosmos 1500 Rocket 4.2 05:20:22 10° SW 05:24:17 32° WNW 05:28:16 10° N
Atlas Centaur 2 4.5 05:22:00 10° SSW 05:24:41 13° S 05:27:37 10° SSE
Okean 3 4.5 05:26:24 24° WSW 05:26:24 24° WSW 05:28:59 10° SW
CENTAUR R/B 3.0 05:22:22 10° SSW 05:27:42 59° ESE 05:34:28 10° NE
Cosmos 1408 Rocket 4.4 05:28:03 25° W 05:28:39 26° WNW 05:32:17 10° NNW
Helios 1A Rocket 2.6 05:26:26 10° S 05:29:40 47° W 05:31:43 20° NNW
Cosmos 1610 Rocket 4.4 05:24:48 10° SSW 05:30:51 64° WNW 05:36:59 10° N
Cosmos 1758 3.7 05:30:17 10° SW 05:33:41 33° WNW 05:37:04 10° N
SeaSat 1 3.5 05:29:43 10° NE 05:34:28 48° ESE 05:39:11 10° S
MOS 1 Rocket 3.9 05:30:13 10° NNE 05:34:38 55° E 05:38:51 10° S
ATLAS CENTAUR R/B 2.6 05:36:43 14° SW 05:36:43 14° SW 05:37:49 10° SSW
Nadezhda 3 Rocket 4.4 05:31:40 10° NNW 05:37:26 41° W 05:43:16 10° SSW
Cosmos 2251 Rocket 4.3 05:32:53 10° S 05:38:05 56° ESE 05:43:18 10° NNE
Cosmos 468 Rocket 4.1 05:34:20 10° NNW 05:39:29 79° ENE 05:44:38 10° SSE
Cosmos 1703 Rocket 4.4 05:36:42 10° N 05:40:56 51° ENE 05:45:08 10° SSE
SL-12 R/B(2) 4.4 05:35:55 10° SW 05:44:01 71° NW 05:54:04 10° NE
Thor Agena Rocket 3.9 05:41:08 10° NNE 05:46:15 68° ESE 05:51:23 10° S
IGS 5A 3.8 05:49:01 10° N 05:52:44 39° WNW 05:56:26 10° SW
Cosmos 2084 Rocket 3.6 05:50:18 15° NW 05:53:38 53° SW 05:57:44 10° SSE
CZ-2D R/B 3.2 05:51:53 10° NNE 05:54:59 64° ESE 05:58:03 10° S
Meteor 1-24 Rocket 3.9 05:50:21 10° NNW 05:56:23 74° W 06:02:20 10° S
Cosmos 1470 Rocket 3.4 05:52:11 10° S 05:56:29 85° WNW 06:00:47 10° N
Meteor 2-5 Rocket 3.8 05:51:46 10° NNW 05:57:40 79° W 06:03:35 10° S
SJ-12 4.2 05:53:52 10° NNE 05:57:41 65° ESE 06:01:27 10° S
Cosmos 2082 Rocket 3.1 05:54:03 11° NW 05:58:34 29° WSW 06:03:22 10° SSW
SL-23 DEB 3.6 05:57:05 15° W 05:59:32 52° N 06:03:01 10° ENE
USA 307 3.6 05:57:41 14° W 06:00:33 32° SW 06:03:58 10° SSE
Cosmos 2366 rocket 4.0 05:55:12 10° SSW 06:01:24 80° W 06:07:44 10° N
COSMO-SKYMED 1 4.1 06:00:17 10° SW 06:02:39 15° W 06:04:27 12° WNW
Cosmos 2278 Rocket 3.1 05:58:45 10° WSW 06:03:36 28° NW 06:08:28 10° NNE
Cosmos 1328 3.9 06:00:17 10° NNW 06:03:43 42° W 06:07:07 10° SSW
COSMOS 2406 3.5 05:58:42 10° NW 06:04:12 49° WSW 06:09:42 10° S
Cosmos 1933 Rocket 4.5 06:00:13 10° S 06:04:32 54° E 06:08:52 10° NNE
Cosmos 1862 Rocket 4.4 06:01:54 10° NNW 06:05:39 29° W 06:09:22 10° SSW
Cosmos 1656 Rocket 3.7 06:00:47 10° SW 06:06:26 73° WNW 06:12:06 10° NNE
CZ-4C R/B 3.6 06:01:07 10° NW 06:07:30 49° NE 06:15:29 10° ESE
Cosmos 1461 2.6 06:04:34 10° SW 06:08:26 70° NW 06:12:20 10° NE
Cosmos 2218 Rocket 4.0 06:03:10 10° SSW 06:09:27 76° W 06:15:52 10° N
IRS-1C 4.4 06:05:34 10° NNE 06:10:55 78° ESE 06:16:15 10° SSW
Cosmos 1943 Rocket 3.3 06:08:48 10° W 06:13:05 23° NW 06:17:23 10° N
Cosmos 1763 Rocket 4.4 06:11:47 10° NW 06:16:04 28° W 06:20:22 10° SSW
YAOGAN 1 4.1 06:12:09 10° NNE 06:16:11 40° E 06:20:12 10° SSE
Cosmos 1190 Rocket 4.0 06:12:47 10° SSW 06:17:59 81° WNW 06:23:12 10° NNE
Meteor 1-16 Rocket 4.3 06:14:37 10° S 06:20:04 83° E 06:25:26 10° NNE
Cosmos 2297 Rocket 4.4 06:17:17 10° N 06:20:50 17° NE 06:24:23 10° ENE
Cosmos 841 Rocket 3.5 06:16:37 10° NNW 06:21:49 88° ENE 06:26:57 10° SSE
Gbstr 26 Del rocket 4.2 06:16:39 10° W 06:23:53 67° N 06:29:53 10° ENE
NOSS 2-2 (C) 2.6 06:21:57 10° SW 06:25:11 60° NW 06:28:09 10° NE
Cosmos 540 Rocket 4.4 06:21:49 10° NW 06:26:04 27° W 06:30:17 10° SSW
